Retour au catalogue

TITAN 3C TRANSTAGE DEB

ActifHEO
NORAD 27864·DEBRIS·🇺🇸 United States

Lancé Dec 21, 1965 depuis Cape Canaveral Space Force Station

Loading…

Prochains Passages (prochaines 24 heures)

TLE

FraisSource: Space-Track

Époque: Sep 13, 2026, 03:08 UTC

1 27864U 65108BK  26256.13122682 -.00000191  00000-0 -89467-2 0  9992
2 27864  26.5633 146.6758 6715965 303.8390 321.6594  2.66381098137033

Suivez TITAN 3C TRANSTAGE DEB en temps réel avec AllMySat

Download on the App Store